{"data":{"norad_id":57665,"intl_designator":"2023-124C","name":"STARLINK-30298","alt_names":[],"object_type":"PAYLOAD","status":"ACTIVE","operator":null,"country":"US","launch_date":"2023-08-22","launch_site_code":"AFWTR","launch_vehicle":null,"mission":null,"orbit_class":"UNKNOWN","rcs_meters":null,"size_class":null,"mass_kg":null,"dimensions":null,"purposes":["comms"],"wikipedia_slug":null,"has_3d_model":false,"image_url":null,"decayed_at":null,"tle_current":{"epoch":"2026-09-20T14:03:13.565952Z","epoch_age_seconds":124249,"freshness":"FRESH","line1":"1 57665U 23124C   26263.58557368  .00000190  00000+0  16758-4 0  9997","line2":"2 57665  53.1592  18.9665 0001472  92.8866 267.2305 15.34391984173445","mean_motion":15.34391984,"eccentricity":0.0001472,"inclination_deg":53.1592,"raan_deg":18.9665,"arg_perigee_deg":92.8866,"mean_anomaly_deg":267.2305,"bstar":1.6758e-5,"rev_number":17344,"period_min":93.848248362591,"perigee_km":461.72009036167,"apogee_km":463.73404074257,"semimajor_km":6840.8640655521,"source":"CELESTRAK","updated_at":"2026-09-21T09:00:33.670012Z"}}}